Time,TemperatureF,DewpointF,PressureIn,WindDirection,WindDirectionDegrees,WindSpeedMPH,WindSpeedGustMPH,Humidity,HourlyPrecipIn,Conditions,Clouds,dailyrainin,SolarRadiationWatts/m^2,SoftwareType,DateUTC
2013-08-02 00:00:00,85.6,73.4,29.88,SE,138,1.0,3.0,67,0.00,,CLR,0.00,0.00,VWS V15.00,2013-08-02 05:00:00,
2013-08-02 00:10:00,85.2,73.4,29.88,SW,221,0.0,5.0,68,0.00,,CLR,0.00,0.00,VWS V15.00,2013-08-02 05:10:00,
2013-08-02 00:20:00,84.8,73.1,29.88,SE,140,1.0,4.0,68,0.00,,CLR,0.00,0.00,VWS V15.00,2013-08-02 05:20:00,
2013-08-02 00:30:00,84.4,73.1,29.88,East,99,1.0,3.0,69,0.00,,CLR,0.00,0.00,VWS V15.00,2013-08-02 05:30:00,
2013-08-02 00:40:00,84.1,73.3,29.88,SE,134,0.0,2.0,70,0.00,,CLR,0.00,0.00,VWS V15.00,2013-08-02 05:40:00,
2013-08-02 00:50:00,83.9,73.1,29.88,East,100,1.0,4.0,70,0.00,,CLR,0.00,0.00,VWS V15.00,2013-08-02 05:50:00,
2013-08-02 01:00:00,83.7,72.9,29.88,ESE,122,0.0,3.0,70,0.00,,CLR,0.00,0.00,VWS V15.00,2013-08-02 06:00:00,
2013-08-02 01:10:00,83.6,72.8,29.88,East,88,0.0,4.0,70,0.00,,CLR,0.00,0.00,VWS V15.00,2013-08-02 06:10:00,
2013-08-02 01:20:00,83.5,72.7,29.88,ESE,121,0.0,5.0,70,0.00,,CLR,0.00,0.00,VWS V15.00,2013-08-02 06:20:00,
2013-08-02 01:30:00,83.3,72.5,29.88,SE,136,2.0,4.0,70,0.00,,CLR,0.00,0.00,VWS V15.00,2013-08-02 06:30:00,
2013-08-02 01:40:00,83.1,73.1,29.88,ESE,107,2.0,3.0,72,0.00,,CLR,0.00,0.00,VWS V15.00,2013-08-02 06:40:00,
2013-08-02 01:50:00,82.9,72.5,29.88,SE,134,1.0,4.0,71,0.00,,CLR,0.00,0.00,VWS V15.00,2013-08-02 06:50:00,
2013-08-02 02:00:00,82.2,71.4,29.88,South,190,0.0,5.0,70,0.00,,SCT300,0.00,0.00,VWS V14.01,2013-08-02 07:00:00,
2013-08-02 02:05:00,82.0,71.7,29.88,South,190,0.0,0.0,71,0.00,,SCT300,0.00,0.00,VWS V14.01,2013-08-02 07:05:00,
2013-08-02 02:10:00,81.9,71.6,29.88,SE,134,0.0,2.0,71,0.00,,SCT300,0.00,0.00,VWS V14.01,2013-08-02 07:10:00,
2013-08-02 02:15:00,81.7,71.4,29.88,SE,134,1.0,1.0,71,0.00,,SCT300,0.00,0.00,VWS V14.01,2013-08-02 07:15:00,
2013-08-02 02:20:00,81.6,71.7,29.88,SE,129,0.0,4.0,72,0.00,,SCT300,0.00,0.00,VWS V14.01,2013-08-02 07:20:00,
2013-08-02 02:25:00,81.5,71.2,29.88,ESE,117,0.0,1.0,71,0.00,,SCT300,0.00,0.00,VWS V14.01,2013-08-02 07:25:00,
2013-08-02 02:30:00,81.5,71.2,29.88,East,97,2.0,4.0,71,0.00,,SCT300,0.00,0.00,VWS V14.01,2013-08-02 07:30:00,
2013-08-02 02:35:00,81.5,71.2,29.88,ESE,118,0.0,3.0,71,0.00,,SCT300,0.00,0.00,VWS V14.01,2013-08-02 07:35:00,
2013-08-02 02:40:00,81.4,71.5,29.88,SE,134,0.0,3.0,72,0.00,,SCT300,0.00,0.00,VWS V14.01,2013-08-02 07:40:00,
2013-08-02 02:45:00,81.3,71.4,29.88,SE,124,1.0,4.0,72,0.00,,SCT300,0.00,0.00,VWS V14.01,2013-08-02 07:45:00,
2013-08-02 02:50:00,81.3,71.4,29.87,SE,128,3.0,4.0,72,0.00,,SCT300,0.00,0.00,VWS V14.01,2013-08-02 07:50:00,
2013-08-02 02:55:00,81.4,71.1,29.87,NE,49,3.0,4.0,71,0.00,,SCT300,0.00,0.00,VWS V14.01,2013-08-02 07:55:00,
2013-08-02 03:00:00,81.4,71.5,29.87,SSE,150,1.0,4.0,72,0.00,,SCT300,0.00,0.00,VWS V14.01,2013-08-02 08:00:00,
2013-08-02 03:05:00,81.3,71.4,29.87,ESE,109,2.0,3.0,72,0.00,,SCT300,0.00,0.00,VWS V14.01,2013-08-02 08:05:00,
2013-08-02 03:10:00,81.3,71.8,29.87,SSE,161,1.0,5.0,73,0.00,,SCT300,0.00,0.00,VWS V14.01,2013-08-02 08:10:00,
2013-08-02 03:15:00,81.4,71.5,29.87,ESE,121,0.0,3.0,72,0.00,,SCT300,0.00,0.00,VWS V14.01,2013-08-02 08:15:00,
2013-08-02 03:20:00,81.3,71.4,29.86,ESE,115,1.0,4.0,72,0.00,,SCT300,0.00,0.00,VWS V14.01,2013-08-02 08:20:00,
2013-08-02 03:25:00,81.2,71.3,29.86,SSE,148,0.0,5.0,72,0.00,,SCT300,0.00,0.00,VWS V14.01,2013-08-02 08:25:00,
2013-08-02 03:30:00,81.2,71.7,29.86,SE,125,1.0,5.0,73,0.00,,SCT300,0.00,0.00,VWS V14.01,2013-08-02 08:30:00,
2013-08-02 03:35:00,81.1,71.2,29.86,ENE,78,2.0,5.0,72,0.00,,SCT300,0.00,0.00,VWS V14.01,2013-08-02 08:35:00,
2013-08-02 03:40:00,81.1,71.2,29.86,ESE,123,1.0,6.0,72,0.00,,SCT300,0.00,0.00,VWS V14.01,2013-08-02 08:40:00,
2013-08-02 03:45:00,81.1,71.6,29.86,SE,134,3.0,6.0,73,0.00,,SCT300,0.00,0.00,VWS V14.01,2013-08-02 08:45:00,
2013-08-02 03:50:00,81.0,71.5,29.86,SSW,211,1.0,6.0,73,0.00,,SCT300,0.00,0.00,VWS V14.01,2013-08-02 08:50:00,
2013-08-02 03:55:00,81.0,71.5,29.86,SSE,167,0.0,5.0,73,0.00,,SCT300,0.00,0.00,VWS V14.01,2013-08-02 08:55:00,
2013-08-02 04:00:00,80.9,71.4,29.86,SE,133,0.0,5.0,73,0.00,,SCT300,0.00,0.00,VWS V14.01,2013-08-02 09:00:00,
2013-08-02 04:06:00,80.8,71.3,29.86,WNW,283,4.0,4.0,73,0.00,,SCT300,0.00,0.00,VWS V14.01,2013-08-02 09:06:00,
2013-08-02 04:10:00,81.3,71.4,29.87,ESE,123,2.0,5.0,72,0.00,,CLR,0.00,0.00,VWS V15.00,2013-08-02 09:10:00,
2013-08-02 04:11:00,80.8,71.3,29.86,SSE,150,1.0,6.0,73,0.00,,SCT300,0.00,0.00,VWS V14.01,2013-08-02 09:11:00,
2013-08-02 04:15:00,80.7,71.2,29.86,SSE,163,1.0,3.0,73,0.00,,SCT300,0.00,0.00,VWS V14.01,2013-08-02 09:15:00,
2013-08-02 04:20:00,81.3,71.4,29.86,SE,140,2.0,4.0,72,0.00,,CLR,0.00,0.00,VWS V15.00,2013-08-02 09:20:00,
2013-08-02 04:21:00,80.7,71.7,29.86,East,101,2.0,5.0,74,0.00,,SCT300,0.00,0.00,VWS V14.01,2013-08-02 09:21:00,
2013-08-02 04:26:00,80.6,71.6,29.86,SSE,158,1.0,6.0,74,0.00,,SCT300,0.00,0.00,VWS V14.01,2013-08-02 09:26:00,
2013-08-02 04:30:00,81.2,71.7,29.86,SE,132,0.0,5.0,73,0.00,,CLR,0.00,0.00,VWS V15.00,2013-08-02 09:30:00,
2013-08-02 04:31:00,80.5,71.5,29.86,ESE,122,1.0,6.0,74,0.00,,SCT300,0.00,0.00,VWS V14.01,2013-08-02 09:31:00,
2013-08-02 04:36:00,80.5,71.8,29.86,ESE,111,2.0,4.0,75,0.00,,FEW300,0.00,0.00,VWS V14.01,2013-08-02 09:36:00,
2013-08-02 04:40:00,81.1,71.6,29.86,ESE,108,3.0,6.0,73,0.00,,CLR,0.00,0.00,VWS V15.00,2013-08-02 09:40:00,
2013-08-02 04:41:00,80.4,71.8,29.86,ESE,120,0.0,4.0,75,0.00,,FEW300,0.00,0.00,VWS V14.01,2013-08-02 09:41:00,
2013-08-02 04:46:00,80.5,71.8,29.86,ESE,119,1.0,3.0,75,0.00,,FEW300,0.00,0.00,VWS V14.01,2013-08-02 09:46:00,
2013-08-02 04:50:00,81.0,71.5,29.86,ESE,107,5.0,11.0,73,0.00,,CLR,0.00,0.00,VWS V15.00,2013-08-02 09:50:00,
2013-08-02 04:51:00,80.4,71.8,29.86,SSW,209,1.0,7.0,75,0.00,,FEW300,0.00,0.00,VWS V14.01,2013-08-02 09:51:00,
2013-08-02 04:56:00,80.4,72.2,29.86,SSE,148,1.0,7.0,76,0.00,,FEW300,0.00,0.00,VWS V14.01,2013-08-02 09:56:00,
2013-08-02 05:00:00,80.9,71.8,29.86,ESE,123,1.0,5.0,74,0.00,,CLR,0.00,0.00,VWS V15.00,2013-08-02 10:00:00,
2013-08-02 05:01:00,80.4,72.2,29.86,SE,127,2.0,7.0,76,0.00,,FEW300,0.00,0.00,VWS V14.01,2013-08-02 10:01:00,
2013-08-02 05:06:00,80.4,72.2,29.86,ESE,123,1.0,4.0,76,0.00,,FEW300,0.00,0.00,VWS V14.01,2013-08-02 10:06:00,
2013-08-02 05:10:00,80.8,71.3,29.86,ESE,117,2.0,6.0,73,0.00,,CLR,0.00,0.00,VWS V15.00,2013-08-02 10:10:00,
2013-08-02 05:11:00,80.3,72.4,29.86,SE,140,1.0,4.0,77,0.00,,FEW300,0.00,0.00,VWS V14.01,2013-08-02 10:11:00,
2013-08-02 05:16:00,80.4,72.5,29.86,ESE,115,1.0,6.0,77,0.00,,FEW300,0.00,0.00,VWS V14.01,2013-08-02 10:16:00,
2013-08-02 05:20:00,80.6,71.6,29.86,East,88,0.0,5.0,74,0.00,,CLR,0.00,0.00,VWS V15.00,2013-08-02 10:20:00,
2013-08-02 05:21:00,80.4,72.5,29.86,SE,145,0.0,6.0,77,0.00,,FEW300,0.00,0.00,VWS V14.01,2013-08-02 10:21:00,
2013-08-02 05:26:00,80.5,72.6,29.86,ESE,115,1.0,5.0,77,0.00,,FEW300,0.00,0.00,VWS V14.01,2013-08-02 10:26:00,
2013-08-02 05:30:00,80.5,71.5,29.86,ESE,109,4.0,6.0,74,0.00,,CLR,0.00,0.00,VWS V15.00,2013-08-02 10:30:00,
2013-08-02 05:31:00,80.6,72.7,29.86,SW,227,1.0,5.0,77,0.00,,FEW300,0.00,0.00,VWS V14.01,2013-08-02 10:31:00,
2013-08-02 05:36:00,80.6,73.1,29.86,SSE,152,1.0,5.0,78,0.00,,SCT300,0.00,0.00,VWS V14.01,2013-08-02 10:36:00,
2013-08-02 05:40:00,80.4,71.8,29.86,NE,51,2.0,4.0,75,0.00,,CLR,0.00,0.00,VWS V15.00,2013-08-02 10:40:00,
2013-08-02 05:41:00,80.7,73.2,29.86,South,172,2.0,5.0,78,0.00,,SCT300,0.00,0.00,VWS V14.01,2013-08-02 10:41:00,
2013-08-02 05:46:00,80.7,73.2,29.86,South,186,1.0,3.0,78,0.00,,SCT300,0.00,0.00,VWS V14.01,2013-08-02 10:46:00,
2013-08-02 05:50:00,80.4,71.8,29.86,SSW,206,1.0,7.0,75,0.00,,CLR,0.00,0.00,VWS V15.00,2013-08-02 10:50:00,
2013-08-02 05:51:00,80.7,73.2,29.86,SSE,168,1.0,4.0,78,0.00,,SCT300,0.00,0.00,VWS V14.01,2013-08-02 10:51:00,
2013-08-02 05:56:00,80.7,73.2,29.86,SW,227,1.0,4.0,78,0.00,,SCT300,0.00,0.00,VWS V14.01,2013-08-02 10:56:00,
2013-08-02 06:00:00,80.4,72.2,29.86,SE,141,2.0,7.0,76,0.00,,CLR,0.00,0.00,VWS V15.00,2013-08-02 11:00:00,
2013-08-02 06:01:00,80.7,73.2,29.86,South,173,1.0,6.0,78,0.00,,SCT300,0.00,0.00,VWS V14.01,2013-08-02 11:01:00,
2013-08-02 06:07:00,80.7,73.2,29.86,SSW,200,1.0,3.0,78,0.00,,SCT300,0.00,0.00,VWS V14.01,2013-08-02 11:07:00,
2013-08-02 06:10:00,80.3,72.4,29.86,ESE,121,3.0,4.0,77,0.00,,CLR,0.00,0.00,VWS V15.00,2013-08-02 11:10:00,
2013-08-02 06:12:00,80.8,73.3,29.86,SSW,195,1.0,3.0,78,0.00,,SCT300,0.00,0.00,VWS V14.01,2013-08-02 11:12:00,
2013-08-02 06:17:00,80.8,73.3,29.86,South,172,2.0,3.0,78,0.00,,SCT300,0.00,0.00,VWS V14.01,2013-08-02 11:17:00,
2013-08-02 06:20:00,80.4,72.5,29.86,SE,124,2.0,6.0,77,0.00,,CLR,0.00,0.00,VWS V15.00,2013-08-02 11:20:00,
2013-08-02 06:22:00,80.7,73.2,29.86,SSE,150,2.0,3.0,78,0.00,,SCT300,0.00,0.00,VWS V14.01,2013-08-02 11:22:00,
2013-08-02 06:27:00,80.7,73.2,29.86,South,175,2.0,3.0,78,0.00,,SCT300,0.00,0.00,VWS V14.01,2013-08-02 11:27:00,
2013-08-02 06:30:00,80.6,72.7,29.86,SE,134,0.0,5.0,77,0.00,,CLR,0.00,0.00,VWS V15.00,2013-08-02 11:30:00,
2013-08-02 06:32:00,80.8,73.7,29.86,SSE,155,1.0,3.0,79,0.00,,SCT300,0.00,0.00,VWS V14.01,2013-08-02 11:32:00,
2013-08-02 06:37:00,80.7,73.2,29.86,SSW,198,1.0,2.0,78,0.00,,BKN300,0.00,0.00,VWS V14.01,2013-08-02 11:37:00,
2013-08-02 06:40:00,80.7,73.2,29.86,SE,132,1.0,5.0,78,0.00,,CLR,0.00,0.00,VWS V15.00,2013-08-02 11:40:00,
2013-08-02 06:42:00,80.7,73.6,29.86,South,181,1.0,3.0,79,0.00,,BKN300,0.00,0.00,VWS V14.01,2013-08-02 11:42:00,
2013-08-02 06:47:00,80.7,73.2,29.86,SE,135,1.0,4.0,78,0.00,,BKN300,0.00,0.00,VWS V14.01,2013-08-02 11:47:00,
2013-08-02 06:50:00,80.7,73.2,29.86,SE,134,2.0,4.0,78,0.00,,CLR,0.00,0.00,VWS V15.00,2013-08-02 11:50:00,
2013-08-02 06:52:00,80.6,73.5,29.86,South,169,1.0,4.0,79,0.00,,BKN300,0.00,0.00,VWS V14.01,2013-08-02 11:52:00,
2013-08-02 06:57:00,80.6,73.5,29.86,SSW,195,2.0,3.0,79,0.00,,BKN300,0.00,0.00,VWS V14.01,2013-08-02 11:57:00,
2013-08-02 07:00:00,80.7,73.2,29.86,South,172,0.0,6.0,78,0.00,,CLR,0.00,0.00,VWS V15.00,2013-08-02 12:00:00,
2013-08-02 07:02:00,80.6,73.1,29.86,SSW,198,2.0,3.0,78,0.00,,BKN300,0.00,0.00,VWS V14.01,2013-08-02 12:02:00,
2013-08-02 07:07:00,80.6,73.5,29.86,South,181,1.0,3.0,79,0.00,,BKN300,0.00,0.00,VWS V14.01,2013-08-02 12:07:00,
2013-08-02 07:10:00,80.8,73.3,29.86,SSW,195,1.0,3.0,78,0.00,,CLR,0.00,0.00,VWS V15.00,2013-08-02 12:10:00,
2013-08-02 07:12:00,80.6,73.5,29.86,SSW,205,1.0,3.0,79,0.00,,BKN300,0.00,0.00,VWS V14.01,2013-08-02 12:12:00,
2013-08-02 07:17:00,80.5,73.4,29.86,SSW,195,1.0,3.0,79,0.00,,BKN300,0.00,0.00,VWS V14.01,2013-08-02 12:17:00,
2013-08-02 07:20:00,80.7,73.2,29.86,SSE,150,2.0,3.0,78,0.00,,CLR,0.00,0.00,VWS V15.00,2013-08-02 12:20:00,
2013-08-02 07:22:00,80.5,73.0,29.86,SE,136,1.0,3.0,78,0.00,,BKN300,0.00,0.00,VWS V14.01,2013-08-02 12:22:00,
2013-08-02 07:27:00,80.6,73.5,29.86,South,188,1.0,4.0,79,0.00,,BKN300,0.00,0.00,VWS V14.01,2013-08-02 12:27:00,
2013-08-02 07:30:00,80.8,73.7,29.86,SSE,155,1.0,3.0,79,0.00,,CLR,0.00,0.00,VWS V15.00,2013-08-02 12:30:00,
2013-08-02 07:32:00,80.5,73.0,29.87,SSW,194,1.0,4.0,78,0.00,,BKN300,0.00,0.00,VWS V14.01,2013-08-02 12:32:00,
2013-08-02 07:37:00,80.5,73.0,29.87,South,188,2.0,2.0,78,0.00,,BKN300,0.00,0.00,VWS V14.01,2013-08-02 12:37:00,
2013-08-02 07:40:00,80.7,73.6,29.86,South,182,1.0,3.0,79,0.00,,CLR,0.00,0.00,VWS V15.00,2013-08-02 12:40:00,
2013-08-02 07:42:00,80.6,73.1,29.87,SSW,198,1.0,4.0,78,0.00,,BKN300,0.00,0.00,VWS V14.01,2013-08-02 12:42:00,
2013-08-02 07:47:00,80.8,72.9,29.87,SW,227,1.0,5.0,77,0.00,,BKN300,0.00,0.00,VWS V14.01,2013-08-02 12:47:00,
2013-08-02 07:50:00,80.6,73.5,29.86,South,175,1.0,4.0,79,0.00,,OVC019,0.00,0.00,VWS V15.00,2013-08-02 12:50:00,
2013-08-02 07:52:00,80.8,72.9,29.87,SSW,194,1.0,5.0,77,0.00,,BKN300,0.00,0.00,VWS V14.01,2013-08-02 12:52:00,
2013-08-02 07:57:00,81.0,72.7,29.87,SE,146,1.0,3.0,76,0.00,,BKN300,0.00,0.00,VWS V14.01,2013-08-02 12:57:00,
2013-08-02 08:00:00,80.6,73.1,29.86,SSW,196,2.0,3.0,78,0.00,,OVC019,0.00,0.00,VWS V15.00,2013-08-02 13:00:00,
2013-08-02 08:02:00,81.3,73.0,29.88,SSW,198,1.0,3.0,76,0.00,,BKN300,0.00,0.00,VWS V14.01,2013-08-02 13:02:00,
2013-08-02 08:07:00,81.6,73.3,29.88,SE,142,1.0,5.0,76,0.00,,BKN300,0.00,0.00,VWS V14.01,2013-08-02 13:07:00,
2013-08-02 08:10:00,80.6,73.5,29.86,SSW,205,0.0,3.0,79,0.00,,OVC019,0.00,0.00,VWS V15.00,2013-08-02 13:10:00,
2013-08-02 08:12:00,82.0,73.3,29.88,South,191,1.0,5.0,75,0.00,,BKN300,0.00,0.00,VWS V14.01,2013-08-02 13:12:00,
2013-08-02 08:17:00,82.4,73.7,29.88,SSE,163,1.0,2.0,75,0.00,,BKN300,0.00,0.00,VWS V14.01,2013-08-02 13:17:00,
2013-08-02 08:20:00,80.5,73.0,29.86,SE,136,1.0,3.0,78,0.00,,OVC019,0.00,0.00,VWS V15.00,2013-08-02 13:20:00,
2013-08-02 08:22:00,83.1,74.4,29.88,ESE,109,2.0,3.0,75,0.00,,BKN300,0.00,0.00,VWS V14.01,2013-08-02 13:22:00,
2013-08-02 08:27:00,83.5,74.3,29.88,SW,221,1.0,2.0,74,0.00,,BKN300,0.00,0.00,VWS V14.01,2013-08-02 13:27:00,
2013-08-02 08:30:00,80.5,73.0,29.87,SSW,194,1.0,4.0,78,0.00,,OVC019,0.00,0.00,VWS V15.00,2013-08-02 13:30:00,
2013-08-02 08:32:00,83.9,74.3,29.88,SW,218,1.0,2.0,73,0.00,,BKN300,0.00,0.00,VWS V14.01,2013-08-02 13:32:00,
2013-08-02 08:37:00,84.7,74.7,29.88,SSW,195,1.0,2.0,72,0.00,,BKN300,0.00,0.00,VWS V14.01,2013-08-02 13:37:00,
2013-08-02 08:40:00,80.6,73.1,29.87,SSW,198,1.0,4.0,78,0.00,,CLR,0.00,0.00,VWS V15.00,2013-08-02 13:40:00,
2013-08-02 08:42:00,85.0,74.1,29.88,SSW,195,1.0,1.0,70,0.00,,BKN300,0.00,0.00,VWS V14.01,2013-08-02 13:42:00,
2013-08-02 08:47:00,85.2,74.3,29.88,SE,146,1.0,2.0,70,0.00,,BKN300,0.00,0.00,VWS V14.01,2013-08-02 13:47:00,
2013-08-02 08:50:00,80.8,72.9,29.87,SSW,194,1.0,5.0,77,0.00,,CLR,0.00,0.00,VWS V15.00,2013-08-02 13:50:00,
2013-08-02 08:52:00,85.6,74.3,29.88,SSW,200,1.0,1.0,69,0.00,,BKN300,0.00,0.00,VWS V14.01,2013-08-02 13:52:00,
2013-08-02 08:57:00,86.1,74.3,29.88,South,178,2.0,3.0,68,0.00,,BKN300,0.00,0.00,VWS V14.01,2013-08-02 13:57:00,
2013-08-02 09:00:00,81.3,73.0,29.88,SSW,198,2.0,3.0,76,0.00,,OVC019,0.00,0.00,VWS V15.00,2013-08-02 14:00:00,
2013-08-02 09:02:00,86.6,74.3,29.88,ESE,122,1.0,2.0,67,0.00,,BKN300,0.00,0.00,VWS V14.01,2013-08-02 14:02:00,
2013-08-02 09:07:00,86.8,73.6,29.88,SSW,198,2.0,3.0,65,0.00,,BKN300,0.00,0.00,VWS V14.01,2013-08-02 14:07:00,
2013-08-02 09:10:00,82.0,73.3,29.88,South,190,1.0,5.0,75,0.00,,CLR,0.00,0.00,VWS V15.00,2013-08-02 14:10:00,
2013-08-02 09:12:00,87.1,73.9,29.88,SSW,198,2.0,2.0,65,0.00,,BKN300,0.00,0.00,VWS V14.01,2013-08-02 14:12:00,
2013-08-02 09:17:00,87.6,74.4,29.88,SSW,206,1.0,2.0,65,0.00,,BKN300,0.00,0.00,VWS V14.01,2013-08-02 14:17:00,
2013-08-02 09:20:00,83.1,74.4,29.88,ESE,109,2.0,3.0,75,0.00,,CLR,0.00,0.00,VWS V15.00,2013-08-02 14:20:00,
2013-08-02 09:22:00,88.6,74.9,29.88,SW,217,1.0,1.0,64,0.00,,BKN300,0.00,0.00,VWS V14.01,2013-08-02 14:22:00,
2013-08-02 09:27:00,89.5,74.3,29.88,SSE,160,1.0,5.0,61,0.00,,BKN300,0.00,0.00,VWS V14.01,2013-08-02 14:27:00,
2013-08-02 09:30:00,83.9,74.3,29.88,SW,218,1.0,2.0,73,0.00,,CLR,0.00,0.00,VWS V15.00,2013-08-02 14:30:00,
2013-08-02 09:32:00,90.0,74.3,29.88,ESE,115,2.0,2.0,60,0.00,,BKN300,0.00,0.00,VWS V14.01,2013-08-02 14:32:00,
2013-08-02 09:37:00,90.1,74.3,29.88,SSE,167,1.0,5.0,60,0.00,,BKN300,0.00,0.00,VWS V14.01,2013-08-02 14:37:00,
2013-08-02 09:40:00,85.0,74.1,29.88,SW,217,1.0,2.0,70,0.00,,CLR,0.00,0.00,VWS V15.00,2013-08-02 14:40:00,
2013-08-02 09:42:00,90.5,74.7,29.88,South,184,1.0,2.0,60,0.00,,BKN300,0.00,0.00,VWS V14.01,2013-08-02 14:42:00,
2013-08-02 09:47:00,90.4,74.1,29.88,South,188,2.0,3.0,59,0.00,,BKN300,0.00,0.00,VWS V14.01,2013-08-02 14:47:00,
2013-08-02 09:50:00,85.6,74.7,29.88,SE,128,1.0,3.0,70,0.00,,CLR,0.00,0.00,VWS V15.00,2013-08-02 14:50:00,
2013-08-02 09:52:00,90.4,73.6,29.88,SSW,200,3.0,3.0,58,0.00,,BKN300,0.00,0.00,VWS V14.01,2013-08-02 14:52:00,
2013-08-02 09:57:00,90.4,73.6,29.88,SSW,192,1.0,6.0,58,0.00,,BKN300,0.00,0.00,VWS V14.01,2013-08-02 14:57:00,
2013-08-02 10:00:00,86.5,74.2,29.88,SSW,194,2.0,4.0,67,0.00,,OVC019,0.00,0.00,VWS V15.00,2013-08-02 15:00:00,
2013-08-02 10:02:00,90.9,75.1,29.88,SW,214,2.0,2.0,60,0.00,,BKN300,0.00,0.00,VWS V14.01,2013-08-02 15:02:00,
2013-08-02 10:07:00,91.0,73.7,29.88,SSW,200,2.0,4.0,57,0.00,,BKN300,0.00,0.00,VWS V14.01,2013-08-02 15:07:00,
2013-08-02 10:10:00,87.1,73.9,29.88,SSW,198,2.0,3.0,65,0.00,,OVC019,0.00,0.00,VWS V15.00,2013-08-02 15:10:00,
2013-08-02 10:12:00,91.5,74.7,29.88,SSW,206,2.0,3.0,58,0.00,,BKN300,0.00,0.00,VWS V14.01,2013-08-02 15:12:00,
2013-08-02 10:17:00,91.4,73.5,29.88,SSW,194,3.0,7.0,56,0.00,,BKN300,0.00,0.00,VWS V14.01,2013-08-02 15:17:00,
2013-08-02 10:20:00,88.6,75.3,29.88,SW,217,1.0,2.0,65,0.00,,OVC019,0.00,0.00,VWS V15.00,2013-08-02 15:20:00,
2013-08-02 10:22:00,91.4,74.0,29.88,SW,222,3.0,3.0,57,0.00,,BKN300,0.00,0.00,VWS V14.01,2013-08-02 15:22:00,
2013-08-02 10:27:00,92.0,74.1,29.88,South,173,3.0,4.0,56,0.00,,BKN300,0.00,0.00,VWS V14.01,2013-08-02 15:27:00,
2013-08-02 10:30:00,90.0,74.3,29.88,ESE,123,2.0,5.0,60,0.00,,CLR,0.00,0.00,VWS V15.00,2013-08-02 15:30:00,
2013-08-02 10:32:00,92.6,74.1,29.88,SW,221,3.0,3.0,55,0.00,,BKN300,0.00,0.00,VWS V14.01,2013-08-02 15:32:00,
2013-08-02 10:37:00,93.1,74.0,29.88,SW,226,6.0,6.0,54,0.00,,BKN300,0.00,0.00,VWS V14.01,2013-08-02 15:37:00,
2013-08-02 10:40:00,90.5,74.7,29.88,SE,126,1.0,5.0,60,0.00,,CLR,0.00,0.00,VWS V15.00,2013-08-02 15:40:00,
2013-08-02 10:42:00,93.1,74.0,29.88,SSW,200,1.0,1.0,54,0.00,,BKN300,0.00,0.00,VWS V14.01,2013-08-02 15:42:00,
2013-08-02 10:47:00,93.4,74.3,29.88,SW,215,4.0,7.0,54,0.00,,BKN300,0.00,0.00,VWS V14.01,2013-08-02 15:47:00,
2013-08-02 10:50:00,90.4,73.6,29.88,South,184,2.0,5.0,58,0.00,,CLR,0.00,0.00,VWS V15.00,2013-08-02 15:50:00,
2013-08-02 10:52:00,94.0,74.8,29.88,SSE,167,1.0,2.0,54,0.00,,BKN300,0.00,0.00,VWS V14.01,2013-08-02 15:52:00,
2013-08-02 10:57:00,94.1,73.8,29.88,SSW,206,2.0,7.0,52,0.00,,BKN300,0.00,0.00,VWS V14.01,2013-08-02 15:57:00,
2013-08-02 11:00:00,90.8,75.0,29.88,South,186,2.0,6.0,60,0.00,,OVC019,0.00,0.00,VWS V15.00,2013-08-02 16:00:00,
2013-08-02 11:02:00,94.3,74.0,29.88,South,188,4.0,5.0,52,0.00,,BKN300,0.00,0.00,VWS V14.01,2013-08-02 16:02:00,
2013-08-02 11:07:00,94.7,73.8,29.88,ESE,122,0.0,5.0,51,0.00,,BKN300,0.00,0.00,VWS V14.01,2013-08-02 16:07:00,
2013-08-02 11:10:00,91.5,74.7,29.88,South,191,1.0,4.0,58,0.00,,CLR,0.00,0.00,VWS V15.00,2013-08-02 16:10:00,
2013-08-02 11:12:00,95.5,73.9,29.88,SSW,208,1.0,1.0,50,0.00,,BKN300,0.00,0.00,VWS V14.01,2013-08-02 16:12:00,
2013-08-02 11:17:00,96.2,73.9,29.89,SSW,199,3.0,7.0,49,0.00,,BKN300,0.00,0.00,VWS V14.01,2013-08-02 16:17:00,
2013-08-02 11:20:00,91.4,74.0,29.88,South,187,2.0,7.0,57,0.00,,OVC019,0.00,0.00,VWS V15.00,2013-08-02 16:20:00,
2013-08-02 11:22:00,96.3,74.7,29.89,SE,132,2.0,2.0,50,0.00,,BKN300,0.00,0.00,VWS V14.01,2013-08-02 16:22:00,
2013-08-02 11:27:00,96.3,74.0,29.89,SSW,203,1.0,6.0,49,0.00,,BKN300,0.00,0.00,VWS V14.01,2013-08-02 16:27:00,
2013-08-02 11:30:00,92.5,73.4,29.88,SSW,209,2.0,7.0,54,0.00,,CLR,0.00,0.00,VWS V15.00,2013-08-02 16:30:00,
2013-08-02 11:32:00,96.4,74.1,29.90,SSW,207,2.0,2.0,49,0.00,,BKN300,0.00,0.00,VWS V14.01,2013-08-02 16:32:00,
2013-08-02 11:37:00,96.9,74.0,29.90,SSW,207,0.0,4.0,48,0.00,,SCT300,0.00,0.00,VWS V14.01,2013-08-02 16:37:00,
2013-08-02 11:40:00,93.1,73.4,29.88,SSW,200,1.0,7.0,53,0.00,,CLR,0.00,0.00,VWS V15.00,2013-08-02 16:40:00,
2013-08-02 11:42:00,97.5,74.5,29.90,SSW,195,2.0,2.0,48,0.00,,SCT300,0.00,0.00,VWS V14.01,2013-08-02 16:42:00,
2013-08-02 11:47:00,97.6,72.7,29.90,SSW,205,2.0,7.0,45,0.00,,SCT300,0.00,0.00,VWS V14.01,2013-08-02 16:47:00,
2013-08-02 11:50:00,94.0,74.8,29.88,SSW,200,1.0,7.0,54,0.00,,CLR,0.00,0.00,VWS V15.00,2013-08-02 16:50:00,
2013-08-02 11:52:00,98.2,74.5,29.90,South,191,1.0,2.0,47,0.00,,SCT300,0.00,0.00,VWS V14.01,2013-08-02 16:52:00,
2013-08-02 11:57:00,98.6,74.2,29.90,SSW,202,0.0,4.0,46,0.00,,SCT300,0.00,0.00,VWS V14.01,2013-08-02 16:57:00,
2013-08-02 12:00:00,94.3,74.0,29.88,SSW,199,2.0,7.0,52,0.00,,CLR,0.00,0.00,VWS V15.00,2013-08-02 17:00:00,
2013-08-02 12:02:00,98.9,73.9,29.90,South,186,2.0,2.0,45,0.00,,SCT300,0.00,0.00,VWS V14.01,2013-08-02 17:02:00,
2013-08-02 12:07:00,99.2,74.8,29.90,SSE,168,1.0,4.0,46,0.00,,SCT300,0.00,0.00,VWS V14.01,2013-08-02 17:07:00,
2013-08-02 12:10:00,95.4,73.8,29.88,SSW,207,1.0,5.0,50,0.00,,CLR,0.00,0.00,VWS V15.00,2013-08-02 17:10:00,
2013-08-02 12:12:00,100.0,74.2,29.90,SSW,207,2.0,2.0,44,0.00,,SCT300,0.00,0.00,VWS V14.01,2013-08-02 17:12:00,
2013-08-02 12:17:00,99.6,73.1,29.89,South,178,3.0,4.0,43,0.00,,SCT300,0.00,0.00,VWS V14.01,2013-08-02 17:17:00,
2013-08-02 12:20:00,96.3,74.7,29.89,SE,146,2.0,7.0,50,0.00,,CLR,0.00,0.00,VWS V15.00,2013-08-02 17:20:00,
2013-08-02 12:22:00,99.4,73.0,29.89,SE,141,4.0,7.0,43,0.00,,SCT300,0.00,0.00,VWS V14.01,2013-08-02 17:22:00,
2013-08-02 12:27:00,99.8,73.3,29.89,SSE,148,3.0,7.0,43,0.00,,SCT300,0.00,0.00,VWS V14.01,2013-08-02 17:27:00,
2013-08-02 12:30:00,96.3,74.0,29.90,South,188,1.0,6.0,49,0.00,,CLR,0.00,0.00,VWS V15.00,2013-08-02 17:30:00,
2013-08-02 12:32:00,99.9,73.4,29.88,South,178,1.0,2.0,43,0.00,,SCT300,0.00,0.00,VWS V14.01,2013-08-02 17:32:00,
2013-08-02 12:37:00,100.0,72.1,29.88,SSW,207,1.0,4.0,41,0.00,,SCT300,0.00,0.00,VWS V14.01,2013-08-02 17:37:00,
2013-08-02 12:40:00,97.5,73.9,29.90,SW,236,2.0,4.0,47,0.00,,CLR,0.00,0.00,VWS V15.00,2013-08-02 17:40:00,
2013-08-02 12:42:00,100.0,74.2,29.88,South,191,0.0,1.0,44,0.00,,SCT300,0.00,0.00,VWS V14.01,2013-08-02 17:42:00,
2013-08-02 12:47:00,100.6,73.3,29.88,SSW,198,2.0,6.0,42,0.00,,SCT300,0.00,0.00,VWS V14.01,2013-08-02 17:47:00,
2013-08-02 12:50:00,98.0,74.3,29.90,SSW,202,1.0,7.0,47,0.00,,CLR,0.00,0.00,VWS V15.00,2013-08-02 17:50:00,
2013-08-02 12:52:00,100.6,74.0,29.88,ESE,116,5.0,5.0,43,0.00,,SCT300,0.00,0.00,VWS V14.01,2013-08-02 17:52:00,
2013-08-02 12:57:00,100.7,72.7,29.88,SSE,150,2.0,10.0,41,0.00,,SCT300,0.00,0.00,VWS V14.01,2013-08-02 17:57:00,
2013-08-02 13:00:00,98.8,73.8,29.90,SE,142,1.0,9.0,45,0.00,,CLR,0.00,0.00,VWS V15.00,2013-08-02 18:00:00,
2013-08-02 13:02:00,101.0,73.0,29.88,South,175,3.0,4.0,41,0.00,,SCT300,0.00,0.00,VWS V14.01,2013-08-02 18:02:00,
2013-08-02 13:07:00,100.9,72.2,29.88,South,187,2.0,9.0,40,0.00,,SCT300,0.00,0.00,VWS V14.01,2013-08-02 18:07:00,
2013-08-02 13:10:00,100.0,74.2,29.90,South,184,2.0,4.0,44,0.00,,CLR,0.00,0.00,VWS V15.00,2013-08-02 18:10:00,
2013-08-02 13:13:00,100.8,72.1,29.88,SSW,193,1.0,5.0,40,0.00,,SCT300,0.00,0.00,VWS V14.01,2013-08-02 18:13:00,
2013-08-02 13:17:00,100.6,72.6,29.87,SSW,213,5.0,9.0,41,0.00,,SCT300,0.00,0.00,VWS V14.01,2013-08-02 18:17:00,
2013-08-02 13:20:00,99.4,73.7,29.89,SSW,202,2.0,5.0,44,0.00,,CLR,0.00,0.00,VWS V15.00,2013-08-02 18:20:00,
2013-08-02 13:22:00,101.2,72.4,29.87,SSW,200,1.0,4.0,40,0.00,,SCT300,0.00,0.00,VWS V14.01,2013-08-02 18:22:00,
2013-08-02 13:27:00,101.2,71.7,29.87,SW,225,5.0,9.0,39,0.00,,SCT300,0.00,0.00,VWS V14.01,2013-08-02 18:27:00,
2013-08-02 13:30:00,99.9,72.7,29.88,South,180,2.0,7.0,42,0.00,,CLR,0.00,0.00,VWS V15.00,2013-08-02 18:30:00,
2013-08-02 13:32:00,101.2,72.4,29.86,SE,135,1.0,6.0,40,0.00,,SCT300,0.00,0.00,VWS V14.01,2013-08-02 18:32:00,
2013-08-02 13:37:00,101.3,72.5,29.86,SW,229,5.0,8.0,40,0.00,,SCT300,0.00,0.00,VWS V14.01,2013-08-02 18:37:00,
2013-08-02 13:40:00,99.9,74.1,29.88,SSW,207,1.0,6.0,44,0.00,,CLR,0.00,0.00,VWS V15.00,2013-08-02 18:40:00,
2013-08-02 13:42:00,101.2,73.9,29.86,SSW,196,2.0,4.0,42,0.00,,SCT300,0.00,0.00,VWS V14.01,2013-08-02 18:42:00,
2013-08-02 13:47:00,101.3,73.2,29.86,SSE,148,1.0,4.0,41,0.00,,SCT300,0.00,0.00,VWS V14.01,2013-08-02 18:47:00,
2013-08-02 13:50:00,100.6,73.3,29.88,South,186,0.0,6.0,42,0.00,,CLR,0.00,0.00,VWS V15.00,2013-08-02 18:50:00,
2013-08-02 13:52:00,101.8,73.7,29.86,SW,221,4.0,4.0,41,0.00,,SCT300,0.00,0.00,VWS V14.01,2013-08-02 18:52:00,
2013-08-02 13:57:00,101.4,72.6,29.86,South,190,2.0,7.0,40,0.00,,SCT300,0.00,0.00,VWS V14.01,2013-08-02 18:57:00,
2013-08-02 14:00:00,100.9,72.9,29.88,ESE,116,2.0,10.0,41,0.00,,CLR,0.00,0.00,VWS V15.00,2013-08-02 19:00:00,
2013-08-02 14:02:00,101.2,73.2,29.86,ESE,117,1.0,3.0,41,0.00,,SCT300,0.00,0.00,VWS V14.01,2013-08-02 19:02:00,
2013-08-02 14:07:00,100.8,74.2,29.86,SSW,196,1.0,4.0,43,0.00,,SCT300,0.00,0.00,VWS V14.01,2013-08-02 19:07:00,
2013-08-02 14:10:00,100.8,72.1,29.88,SSW,207,2.0,9.0,40,0.00,,CLR,0.00,0.00,VWS V15.00,2013-08-02 19:10:00,
2013-08-02 14:12:00,100.4,73.9,29.86,SE,129,2.0,3.0,43,0.00,,SCT300,0.00,0.00,VWS V14.01,2013-08-02 19:12:00,
2013-08-02 14:17:00,100.4,73.9,29.85,SSE,148,2.0,4.0,43,0.00,,SCT300,0.00,0.00,VWS V14.01,2013-08-02 19:17:00,
2013-08-02 14:20:00,101.0,72.2,29.87,SSE,166,2.0,9.0,40,0.00,,CLR,0.00,0.00,VWS V15.00,2013-08-02 19:20:00,
2013-08-02 14:22:00,100.1,73.6,29.85,SSE,163,1.0,1.0,43,0.00,,SCT300,0.00,0.00,VWS V14.01,2013-08-02 19:22:00,
2013-08-02 14:27:00,100.0,73.5,29.85,SSW,198,1.0,3.0,43,0.00,,SCT300,0.00,0.00,VWS V14.01,2013-08-02 19:27:00,
2013-08-02 14:30:00,101.2,72.4,29.86,SSW,207,3.0,9.0,40,0.00,,CLR,0.00,0.00,VWS V15.00,2013-08-02 19:30:00,
2013-08-02 14:32:00,100.0,73.5,29.84,ESE,113,5.0,6.0,43,0.00,,SCT300,0.00,0.00,VWS V14.01,2013-08-02 19:32:00,
2013-08-02 14:37:00,100.3,73.8,29.84,SSW,196,1.0,6.0,43,0.00,,SCT300,0.00,0.00,VWS V14.01,2013-08-02 19:37:00,
2013-08-02 14:40:00,101.3,73.2,29.86,SSW,199,2.0,18.0,41,0.00,,CLR,0.00,0.00,VWS V15.00,2013-08-02 19:40:00,
2013-08-02 14:42:00,100.6,73.3,29.84,SE,128,2.0,4.0,42,0.00,,SCT300,0.00,0.00,VWS V14.01,2013-08-02 19:42:00,
2013-08-02 14:48:00,101.4,72.6,29.83,SSE,168,1.0,8.0,40,0.00,,SCT300,0.00,0.00,VWS V14.01,2013-08-02 19:48:00,
2013-08-02 14:50:00,101.8,74.4,29.86,SSE,149,1.0,4.0,42,0.00,,CLR,0.00,0.00,VWS V15.00,2013-08-02 19:50:00,
2013-08-02 14:53:00,101.4,71.9,29.83,SSW,210,4.0,4.0,39,0.00,,SCT300,0.00,0.00,VWS V14.01,2013-08-02 19:53:00,
2013-08-02 14:57:00,101.6,72.0,29.83,SSW,199,1.0,5.0,39,0.00,,SCT300,0.00,0.00,VWS V14.01,2013-08-02 19:57:00,
2013-08-02 15:00:00,101.3,73.2,29.86,East,88,3.0,7.0,41,0.00,,CLR,0.00,0.00,VWS V15.00,2013-08-02 20:00:00,
2013-08-02 15:02:00,102.1,72.5,29.83,SSW,193,2.0,5.0,39,0.00,,SCT300,0.00,0.00,VWS V14.01,2013-08-02 20:02:00,
2013-08-02 15:08:00,101.8,69.8,29.83,SW,219,2.0,5.0,36,0.00,,SCT300,0.00,0.00,VWS V14.01,2013-08-02 20:08:00,
2013-08-02 15:10:00,100.4,73.2,29.86,SE,139,2.0,12.0,42,0.00,,CLR,0.00,0.00,VWS V15.00,2013-08-02 20:10:00,
2013-08-02 15:13:00,101.6,72.8,29.83,East,97,4.0,4.0,40,0.00,,SCT300,0.00,0.00,VWS V14.01,2013-08-02 20:13:00,
2013-08-02 15:17:00,102.2,72.6,29.83,South,180,1.0,8.0,39,0.00,,SCT300,0.00,0.00,VWS V14.01,2013-08-02 20:17:00,
2013-08-02 15:20:00,100.2,73.7,29.85,SE,138,1.0,4.0,43,0.00,,CLR,0.00,0.00,VWS V15.00,2013-08-02 20:20:00,
2013-08-02 15:22:00,102.8,73.1,29.83,South,189,1.0,2.0,39,0.00,,SCT300,0.00,0.00,VWS V14.01,2013-08-02 20:22:00,
2013-08-02 15:28:00,103.0,73.3,29.83,SW,218,3.0,5.0,39,0.00,,SCT300,0.00,0.00,VWS V14.01,2013-08-02 20:28:00,
2013-08-02 15:30:00,100.0,73.5,29.84,SE,132,3.0,17.0,43,0.00,,CLR,0.00,0.00,VWS V15.00,2013-08-02 20:30:00,
2013-08-02 15:33:00,103.0,70.9,29.82,SW,218,2.0,3.0,36,0.00,,SCT300,0.00,0.00,VWS V14.01,2013-08-02 20:33:00,
2013-08-02 15:38:00,103.6,72.2,29.82,SSE,157,1.0,3.0,37,0.00,,SCT300,0.00,0.00,VWS V14.01,2013-08-02 20:38:00,
2013-08-02 15:40:00,100.6,73.3,29.84,SE,144,2.0,6.0,42,0.00,,CLR,0.00,0.00,VWS V15.00,2013-08-02 20:40:00,
2013-08-02 15:42:00,103.6,72.2,29.82,SW,219,6.0,6.0,37,0.00,,SCT300,0.00,0.00,VWS V14.01,2013-08-02 20:42:00,
2013-08-02 15:48:00,103.0,71.7,29.82,SE,145,3.0,6.0,37,0.00,,SCT300,0.00,0.00,VWS V14.01,2013-08-02 20:48:00,
2013-08-02 15:50:00,101.5,71.9,29.83,SSW,196,3.0,8.0,39,0.00,,CLR,0.00,0.00,VWS V15.00,2013-08-02 20:50:00,
2013-08-02 15:53:00,103.6,70.6,29.82,South,184,2.0,2.0,35,0.00,,SCT300,0.00,0.00,VWS V14.01,2013-08-02 20:53:00,
2013-08-02 15:58:00,104.0,72.6,29.82,South,183,3.0,9.0,37,0.00,,SCT300,0.00,0.00,VWS V14.01,2013-08-02 20:58:00,
2013-08-02 16:00:00,102.1,73.2,29.83,East,85,4.0,6.0,40,0.00,,CLR,0.00,0.00,VWS V15.00,2013-08-02 21:00:00,
2013-08-02 16:03:00,103.6,71.4,29.82,ESE,121,1.0,3.0,36,0.00,,SCT300,0.00,0.00,VWS V14.01,2013-08-02 21:03:00,
2013-08-02 16:08:00,103.6,74.6,29.82,ESE,117,2.0,5.0,40,0.00,,SCT300,0.00,0.00,VWS V14.01,2013-08-02 21:08:00,
2013-08-02 16:10:00,101.5,73.4,29.83,ESE,117,4.0,6.0,41,0.00,,CLR,0.00,0.00,VWS V15.00,2013-08-02 21:10:00,
2013-08-02 16:13:00,103.0,71.7,29.82,SSW,202,2.0,3.0,37,0.00,,SCT300,0.00,0.00,VWS V14.01,2013-08-02 21:13:00,
2013-08-02 16:18:00,103.2,70.2,29.82,SSE,157,1.0,4.0,35,0.00,,SCT300,0.00,0.00,VWS V14.01,2013-08-02 21:18:00,
2013-08-02 16:20:00,102.7,73.0,29.83,South,179,2.0,8.0,39,0.00,,CLR,0.00,0.00,VWS V15.00,2013-08-02 21:20:00,
2013-08-02 16:23:00,103.5,73.7,29.82,East,99,1.0,2.0,39,0.00,,SCT300,0.00,0.00,VWS V14.01,2013-08-02 21:23:00,
2013-08-02 16:28:00,103.5,72.2,29.82,SSW,199,1.0,4.0,37,0.00,,SCT300,0.00,0.00,VWS V14.01,2013-08-02 21:28:00,
2013-08-02 16:30:00,102.9,70.8,29.82,SSE,166,1.0,5.0,36,0.00,,OVC019,0.00,0.00,VWS V15.00,2013-08-02 21:30:00,
2013-08-02 16:32:00,103.8,74.0,29.82,SE,132,1.0,3.0,39,0.00,,SCT300,0.00,0.00,VWS V14.01,2013-08-02 21:32:00,
2013-08-02 16:38:00,104.0,73.4,29.82,SSE,163,1.0,4.0,38,0.00,,BKN080,0.00,0.00,VWS V14.01,2013-08-02 21:38:00,
2013-08-02 16:40:00,103.7,72.3,29.82,South,184,2.0,4.0,37,0.00,,CLR,0.00,0.00,VWS V15.00,2013-08-02 21:40:00,
2013-08-02 16:42:00,103.6,73.0,29.82,ESE,103,2.0,4.0,38,0.00,,BKN080,0.00,0.00,VWS V14.01,2013-08-02 21:42:00,
2013-08-02 16:48:00,102.7,75.2,29.82,ESE,107,3.0,6.0,42,0.00,,BKN080,0.00,0.00,VWS V14.01,2013-08-02 21:48:00,
2013-08-02 16:50:00,103.5,68.8,29.82,South,173,2.0,6.0,33,0.00,,CLR,0.00,0.00,VWS V15.00,2013-08-02 21:50:00,
2013-08-02 16:53:00,102.5,72.1,29.82,SE,132,1.0,3.0,38,0.00,,BKN080,0.00,0.00,VWS V14.01,2013-08-02 21:53:00,
2013-08-02 16:58:00,103.4,74.4,29.82,ESE,112,3.0,3.0,40,0.00,,BKN080,0.00,0.00,VWS V14.01,2013-08-02 21:58:00,
2013-08-02 17:00:00,103.6,71.4,29.82,SE,142,3.0,9.0,36,0.00,,CLR,0.00,0.00,VWS V15.00,2013-08-02 22:00:00,
2013-08-02 17:02:00,103.9,72.5,29.82,SE,135,2.0,2.0,37,0.00,,BKN080,0.00,0.00,VWS V14.01,2013-08-02 22:02:00,
2013-08-02 17:08:00,104.1,74.2,29.82,SE,134,2.0,4.0,39,0.00,,BKN080,0.00,0.00,VWS V14.01,2013-08-02 22:08:00,
2013-08-02 17:10:00,103.1,71.0,29.82,SE,144,2.0,6.0,36,0.00,,CLR,0.00,0.00,VWS V15.00,2013-08-02 22:10:00,
2013-08-02 17:13:00,104.2,75.1,29.82,South,180,1.0,1.0,40,0.00,,BKN080,0.00,0.00,VWS V14.01,2013-08-02 22:13:00,
2013-08-02 17:17:00,104.6,73.1,29.81,SSW,206,1.0,3.0,37,0.00,,BKN080,0.00,0.00,VWS V14.01,2013-08-02 22:17:00,
2013-08-02 17:20:00,103.5,72.9,29.82,SSE,160,1.0,6.0,38,0.00,,CLR,0.00,0.00,VWS V15.00,2013-08-02 22:20:00,
2013-08-02 17:23:00,104.3,72.1,29.81,South,169,2.0,2.0,36,0.00,,BKN080,0.00,0.00,VWS V14.01,2013-08-02 22:23:00,
2013-08-02 17:27:00,104.2,71.1,29.81,SSW,196,1.0,2.0,35,0.00,,BKN080,0.00,0.00,VWS V14.01,2013-08-02 22:27:00,
2013-08-02 17:30:00,103.7,73.9,29.82,ESE,105,2.0,4.0,39,0.00,,CLR,0.00,0.00,VWS V15.00,2013-08-02 22:30:00,
2013-08-02 17:32:00,104.8,72.5,29.81,East,85,3.0,3.0,36,0.00,,BKN080,0.00,0.00,VWS V14.01,2013-08-02 22:32:00,
2013-08-02 17:38:00,104.5,69.7,29.81,ESE,116,2.0,6.0,33,0.00,,SCT085,0.00,0.00,VWS V14.01,2013-08-02 22:38:00,
2013-08-02 17:40:00,103.7,73.1,29.82,ESE,121,1.0,4.0,38,0.00,,CLR,0.00,0.00,VWS V15.00,2013-08-02 22:40:00,
2013-08-02 17:43:00,104.5,71.4,29.81,ESE,117,2.0,3.0,35,0.00,,SCT085,0.00,0.00,VWS V14.01,2013-08-02 22:43:00,
2013-08-02 17:48:00,103.9,71.7,29.80,SSW,207,0.0,4.0,36,0.00,,SCT085,0.00,0.00,VWS V14.01,2013-08-02 22:48:00,
2013-08-02 17:50:00,102.4,72.0,29.82,SE,135,3.0,6.0,38,0.00,,CLR,0.00,0.00,VWS V15.00,2013-08-02 22:50:00,
2013-08-02 17:53:00,103.5,72.2,29.80,ESE,112,1.0,2.0,37,0.00,,SCT085,0.00,0.00,VWS V14.01,2013-08-02 22:53:00,
2013-08-02 17:58:00,103.0,72.5,29.80,ESE,123,0.0,5.0,38,0.00,,SCT085,0.00,0.00,VWS V14.01,2013-08-02 22:58:00,
2013-08-02 18:00:00,103.7,72.3,29.82,SSE,148,1.0,4.0,37,0.00,,CLR,0.00,0.00,VWS V15.00,2013-08-02 23:00:00,
2013-08-02 18:03:00,103.0,73.3,29.80,South,182,0.0,1.0,39,0.00,,SCT085,0.00,0.00,VWS V14.01,2013-08-02 23:03:00,
2013-08-02 18:08:00,103.4,72.9,29.80,SE,128,1.0,2.0,38,0.00,,SCT085,0.00,0.00,VWS V14.01,2013-08-02 23:08:00,
2013-08-02 18:10:00,104.1,75.0,29.82,SE,134,1.0,4.0,40,0.00,,CLR,0.00,0.00,VWS V15.00,2013-08-02 23:10:00,
2013-08-02 18:13:00,103.2,73.4,29.80,SSE,163,0.0,1.0,39,0.00,,SCT085,0.00,0.00,VWS V14.01,2013-08-02 23:13:00,
2013-08-02 18:18:00,103.2,74.2,29.80,SSW,195,0.0,3.0,40,0.00,,SCT085,0.00,0.00,VWS V14.01,2013-08-02 23:18:00,
2013-08-02 18:20:00,104.4,72.1,29.81,SSW,192,2.0,4.0,36,0.00,,CLR,0.00,0.00,VWS V15.00,2013-08-02 23:20:00,
2013-08-02 18:23:00,103.0,73.3,29.80,SSW,198,0.0,2.0,39,0.00,,SCT085,0.00,0.00,VWS V14.01,2013-08-02 23:23:00,
2013-08-02 18:28:00,102.7,72.2,29.80,SSE,165,1.0,3.0,38,0.00,,SCT085,0.00,0.00,VWS V14.01,2013-08-02 23:28:00,
2013-08-02 18:30:00,104.8,73.3,29.81,ESE,119,2.0,2.0,37,0.00,,CLR,0.00,0.00,VWS V15.00,2013-08-02 23:30:00,
2013-08-02 18:33:00,102.4,72.7,29.80,South,182,1.0,2.0,39,0.00,,SCT085,0.00,0.00,VWS V14.01,2013-08-02 23:33:00,
2013-08-02 18:38:00,102.3,73.4,29.80,SSE,168,0.0,2.0,40,0.00,,SCT085,0.00,0.00,VWS V14.01,2013-08-02 23:38:00,
2013-08-02 18:40:00,104.6,71.5,29.81,South,169,2.0,6.0,35,0.00,,CLR,0.00,0.00,VWS V15.00,2013-08-02 23:40:00,
2013-08-02 18:43:00,102.7,73.8,29.80,SSW,196,0.0,1.0,40,0.00,,SCT085,0.00,0.00,VWS V14.01,2013-08-02 23:43:00,
2013-08-02 18:48:00,102.5,72.8,29.80,SE,137,1.0,2.0,39,0.00,,SCT085,0.00,0.00,VWS V14.01,2013-08-02 23:48:00,
2013-08-02 18:50:00,103.7,72.3,29.80,SE,128,1.0,7.0,37,0.00,,CLR,0.00,0.00,VWS V15.00,2013-08-02 23:50:00,
2013-08-02 18:53:00,102.0,72.4,29.80,SE,140,1.0,3.0,39,0.00,,SCT085,0.00,0.00,VWS V14.01,2013-08-02 23:53:00,
2013-08-02 18:58:00,101.6,69.7,29.80,South,184,1.0,3.0,36,0.00,,SCT085,0.00,0.00,VWS V14.01,2013-08-02 23:58:00,
2013-08-02 19:00:00,102.9,73.2,29.80,SSW,213,0.0,5.0,39,0.00,,CLR,0.00,0.00,VWS V15.00,2013-08-03 00:00:00,
2013-08-02 19:03:00,101.5,69.6,29.80,SSW,198,1.0,1.0,36,0.00,,SCT085,0.00,0.00,VWS V14.01,2013-08-03 00:03:00,
2013-08-02 19:08:00,101.6,68.8,29.80,SSW,198,1.0,3.0,35,0.00,,SCT085,0.00,0.00,VWS V14.01,2013-08-03 00:08:00,
2013-08-02 19:10:00,103.3,73.5,29.80,SSE,163,1.0,2.0,39,0.00,,CLR,0.00,0.00,VWS V15.00,2013-08-03 00:10:00,
2013-08-02 19:13:00,101.3,69.4,29.80,SSE,157,2.0,2.0,36,0.00,,FEW080,0.00,0.00,VWS V14.01,2013-08-03 00:13:00,
2013-08-02 19:18:00,101.1,71.6,29.80,SSE,165,1.0,3.0,39,0.00,,FEW080,0.00,0.00,VWS V14.01,2013-08-03 00:18:00,
2013-08-02 19:20:00,103.1,74.1,29.80,South,183,1.0,3.0,40,0.00,,CLR,0.00,0.00,VWS V15.00,2013-08-03 00:20:00,
2013-08-02 19:23:00,100.8,69.8,29.80,ESE,119,2.0,2.0,37,0.00,,FEW080,0.00,0.00,VWS V14.01,2013-08-03 00:23:00,
2013-08-02 19:28:00,100.4,71.0,29.80,South,169,1.0,3.0,39,0.00,,FEW080,0.00,0.00,VWS V14.01,2013-08-03 00:28:00,
2013-08-02 19:30:00,102.4,72.7,29.80,SSW,194,1.0,3.0,39,0.00,,CLR,0.00,0.00,VWS V15.00,2013-08-03 00:30:00,
2013-08-02 19:33:00,100.0,71.4,29.80,SSW,200,1.0,2.0,40,0.00,,FEW080,0.00,0.00,VWS V14.01,2013-08-03 00:33:00,
2013-08-02 19:38:00,99.8,69.7,29.80,South,186,2.0,4.0,38,0.00,,FEW080,0.00,0.00,VWS V14.01,2013-08-03 00:38:00,
2013-08-02 19:40:00,102.6,73.7,29.80,South,187,1.0,2.0,40,0.00,,OVC019,0.00,0.00,VWS V15.00,2013-08-03 00:40:00,
2013-08-02 19:43:00,99.3,70.7,29.80,SSE,168,1.0,2.0,40,0.00,,FEW080,0.00,0.00,VWS V14.01,2013-08-03 00:43:00,
2013-08-02 19:48:00,98.7,70.9,29.80,SSE,165,1.0,2.0,41,0.00,,FEW080,0.00,0.00,VWS V14.01,2013-08-03 00:48:00,
2013-08-02 19:50:00,102.1,72.5,29.80,SSE,152,1.0,3.0,39,0.00,,OVC019,0.00,0.00,VWS V15.00,2013-08-03 00:50:00,
2013-08-02 19:53:00,98.2,71.2,29.80,South,171,1.0,1.0,42,0.00,,FEW080,0.00,0.00,VWS V14.01,2013-08-03 00:53:00,
2013-08-02 19:58:00,97.7,72.1,29.80,SE,143,1.0,4.0,44,0.00,,FEW080,0.00,0.00,VWS V14.01,2013-08-03 00:58:00,
2013-08-02 20:00:00,101.5,69.6,29.80,South,191,1.0,3.0,36,0.00,,CLR,0.00,0.00,VWS V15.00,2013-08-03 01:00:00,
2013-08-02 20:03:00,96.8,73.9,29.81,SE,136,0.0,1.0,48,0.00,,FEW080,0.00,0.00,VWS V14.01,2013-08-03 01:03:00,
2013-08-02 20:08:00,96.2,72.7,29.81,SE,138,0.0,1.0,47,0.00,,FEW080,0.00,0.00,VWS V14.01,2013-08-03 01:08:00,
2013-08-02 20:10:00,101.3,69.4,29.80,SSW,192,1.0,4.0,36,0.00,,CLR,0.00,0.00,VWS V15.00,2013-08-03 01:10:00,
2013-08-02 20:13:00,95.6,72.8,29.81,SSE,158,0.0,2.0,48,0.00,,FEW080,0.00,0.00,VWS V14.01,2013-08-03 01:13:00,
2013-08-02 20:18:00,94.8,73.9,29.82,South,171,1.0,2.0,51,0.00,,FEW080,0.00,0.00,VWS V14.01,2013-08-03 01:18:00,
2013-08-02 20:20:00,100.9,69.9,29.80,South,176,2.0,3.0,37,0.00,,CLR,0.00,0.00,VWS V15.00,2013-08-03 01:20:00,
2013-08-02 20:23:00,94.1,74.4,29.82,SSW,203,1.0,1.0,53,0.00,,FEW080,0.00,0.00,VWS V14.01,2013-08-03 01:23:00,
2013-08-02 20:28:00,93.6,74.5,29.82,SSW,195,1.0,1.0,54,0.00,,FEW080,0.00,0.00,VWS V14.01,2013-08-03 01:28:00,
2013-08-02 20:30:00,100.1,70.7,29.80,SSE,166,1.0,3.0,39,0.00,,CLR,0.00,0.00,VWS V15.00,2013-08-03 01:30:00,
2013-08-02 20:33:00,93.2,72.4,29.82,SSW,198,1.0,2.0,51,0.00,,FEW080,0.00,0.00,VWS V14.01,2013-08-03 01:33:00,
2013-08-02 20:38:00,93.2,72.4,29.82,SSW,202,0.0,3.0,51,0.00,,BKN290,0.00,0.00,VWS V14.01,2013-08-03 01:38:00,
2013-08-02 20:40:00,99.4,70.8,29.80,SE,146,1.0,4.0,40,0.00,,CLR,0.00,0.00,VWS V15.00,2013-08-03 01:40:00,
2013-08-02 20:43:00,93.0,72.8,29.82,SSW,198,1.0,1.0,52,0.00,,BKN290,0.00,0.00,VWS V14.01,2013-08-03 01:43:00,
2013-08-02 20:48:00,92.8,73.7,29.82,South,184,1.0,2.0,54,0.00,,BKN290,0.00,0.00,VWS V14.01,2013-08-03 01:48:00,
2013-08-02 20:50:00,98.2,71.2,29.80,South,171,1.0,2.0,42,0.00,,CLR,0.00,0.00,VWS V15.00,2013-08-03 01:50:00,
2013-08-02 20:53:00,92.4,73.3,29.82,SSE,160,1.0,2.0,54,0.00,,BKN290,0.00,0.00,VWS V14.01,2013-08-03 01:53:00,
2013-08-02 20:58:00,92.2,71.5,29.82,ESE,123,1.0,5.0,51,0.00,,BKN290,0.00,0.00,VWS V14.01,2013-08-03 01:58:00,
2013-08-02 21:00:00,97.0,74.1,29.81,SE,134,1.0,4.0,48,0.00,,CLR,0.00,0.00,VWS V15.00,2013-08-03 02:00:00,
2013-08-02 21:03:00,92.2,72.6,29.83,SSW,198,1.0,1.0,53,0.00,,BKN290,0.00,0.00,VWS V14.01,2013-08-03 02:03:00,
2013-08-02 21:08:00,92.0,71.9,29.83,South,169,1.0,2.0,52,0.00,,BKN290,0.00,0.00,VWS V14.01,2013-08-03 02:08:00,
2013-08-02 21:10:00,95.7,72.9,29.81,SE,140,1.0,1.0,48,0.00,,CLR,0.00,0.00,VWS V15.00,2013-08-03 02:10:00,
2013-08-02 21:13:00,91.8,72.8,29.83,SSW,198,0.0,1.0,54,0.00,,BKN290,0.00,0.00,VWS V14.01,2013-08-03 02:13:00,
2013-08-02 21:18:00,91.5,72.5,29.83,SSE,167,1.0,3.0,54,0.00,,BKN290,0.00,0.00,VWS V14.01,2013-08-03 02:18:00,
2013-08-02 21:20:00,94.3,74.6,29.82,SSW,196,1.0,2.0,53,0.00,,CLR,0.00,0.00,VWS V15.00,2013-08-03 02:20:00,
2013-08-02 21:23:00,91.3,72.9,29.83,SSE,150,0.0,1.0,55,0.00,,BKN290,0.00,0.00,VWS V14.01,2013-08-03 02:23:00,
2013-08-02 21:28:00,90.9,73.0,29.83,South,176,1.0,3.0,56,0.00,,BKN290,0.00,0.00,VWS V14.01,2013-08-03 02:28:00,
2013-08-02 21:30:00,93.2,72.4,29.82,SE,132,1.0,3.0,51,0.00,,CLR,0.00,0.00,VWS V15.00,2013-08-03 02:30:00,
2013-08-02 21:33:00,90.7,74.4,29.83,SSE,160,0.0,1.0,59,0.00,,BKN290,0.00,0.00,VWS V14.01,2013-08-03 02:33:00,
2013-08-02 21:38:00,90.4,73.6,29.83,South,178,1.0,2.0,58,0.00,,FEW090,0.00,0.00,VWS V14.01,2013-08-03 02:38:00,
2013-08-02 21:40:00,93.1,72.3,29.82,SSW,193,1.0,3.0,51,0.00,,CLR,0.00,0.00,VWS V15.00,2013-08-03 02:40:00,
2013-08-02 21:43:00,90.3,74.0,29.83,SSW,198,0.0,1.0,59,0.00,,FEW090,0.00,0.00,VWS V14.01,2013-08-03 02:43:00,
2013-08-02 21:48:00,90.2,72.9,29.84,South,171,0.0,2.0,57,0.00,,FEW090,0.00,0.00,VWS V14.01,2013-08-03 02:48:00,
2013-08-02 21:50:00,92.5,73.4,29.82,SSE,167,1.0,5.0,54,0.00,,CLR,0.00,0.00,VWS V15.00,2013-08-03 02:50:00,
2013-08-02 21:53:00,90.2,71.3,29.84,ESE,115,4.0,7.0,54,0.00,,FEW090,0.00,0.00,VWS V14.01,2013-08-03 02:53:00,
2013-08-02 21:58:00,90.3,71.4,29.84,SE,130,1.0,7.0,54,0.00,,FEW090,0.00,0.00,VWS V14.01,2013-08-03 02:58:00,
2013-08-02 22:00:00,92.2,72.6,29.83,SSW,198,1.0,5.0,53,0.00,,CLR,0.00,0.00,VWS V15.00,2013-08-03 03:00:00,
2013-08-02 22:03:00,90.3,71.9,29.85,SSW,195,2.0,2.0,55,0.00,,FEW090,0.00,0.00,VWS V14.01,2013-08-03 03:03:00,
2013-08-02 22:08:00,90.2,71.3,29.85,SE,137,1.0,3.0,54,0.00,,FEW090,0.00,0.00,VWS V14.01,2013-08-03 03:08:00,
2013-08-02 22:10:00,91.9,72.9,29.83,SSE,150,1.0,2.0,54,0.00,,CLR,0.00,0.00,VWS V15.00,2013-08-03 03:10:00,
2013-08-02 22:13:00,90.2,71.3,29.85,SE,136,1.0,2.0,54,0.00,,FEW090,0.00,0.00,VWS V14.01,2013-08-03 03:13:00,
2013-08-02 22:18:00,90.2,71.9,29.85,SSE,163,1.0,2.0,55,0.00,,FEW090,0.00,0.00,VWS V14.01,2013-08-03 03:18:00,
2013-08-02 22:20:00,91.3,72.9,29.83,SSE,150,1.0,3.0,55,0.00,,CLR,0.00,0.00,VWS V15.00,2013-08-03 03:20:00,
2013-08-02 22:23:00,90.1,72.3,29.85,SSE,150,1.0,3.0,56,0.00,,FEW090,0.00,0.00,VWS V14.01,2013-08-03 03:23:00,
2013-08-02 22:28:00,90.0,72.7,29.85,SSE,157,0.0,3.0,57,0.00,,FEW090,0.00,0.00,VWS V14.01,2013-08-03 03:28:00,
2013-08-02 22:30:00,90.8,74.0,29.83,SSE,160,1.0,3.0,58,0.00,,CLR,0.00,0.00,VWS V15.00,2013-08-03 03:30:00,
2013-08-02 22:33:00,89.8,73.1,29.85,SE,143,1.0,4.0,58,0.00,,FEW090,0.00,0.00,VWS V14.01,2013-08-03 03:33:00,
2013-08-02 22:38:00,89.5,73.3,29.85,ESE,118,1.0,4.0,59,0.00,,BKN290,0.00,0.00,VWS V14.01,2013-08-03 03:38:00,
2013-08-02 22:40:00,90.3,74.0,29.83,SSW,199,1.0,2.0,59,0.00,,CLR,0.00,0.00,VWS V15.00,2013-08-03 03:40:00,
2013-08-02 22:43:00,89.2,73.0,29.85,SE,127,0.0,2.0,59,0.00,,BKN290,0.00,0.00,VWS V14.01,2013-08-03 03:43:00,
2013-08-02 22:48:00,89.0,72.8,29.86,ESE,121,0.0,4.0,59,0.00,,BKN290,0.00,0.00,VWS V14.01,2013-08-03 03:48:00,
2013-08-02 22:50:00,90.2,72.9,29.84,East,80,2.0,3.0,57,0.00,,OVC019,0.00,0.00,VWS V15.00,2013-08-03 03:50:00,
2013-08-02 22:53:00,88.7,72.5,29.86,WSW,244,1.0,1.0,59,0.00,,BKN290,0.00,0.00,VWS V14.01,2013-08-03 03:53:00,
2013-08-02 22:58:00,88.4,72.8,29.86,ESE,120,1.0,3.0,60,0.00,,BKN290,0.00,0.00,VWS V14.01,2013-08-03 03:58:00,
2013-08-02 23:00:00,90.3,71.4,29.85,NW,319,0.0,7.0,54,0.00,,CLR,0.00,0.00,VWS V15.00,2013-08-03 04:00:00,
2013-08-02 23:01:00,88.2,73.1,29.86,ESE,105,1.0,3.0,61,0.00,,BKN290,0.00,0.00,VWS V14.01,2013-08-03 04:01:00,
2013-08-02 23:02:00,88.1,73.0,29.86,SE,132,0.0,0.0,61,0.00,,BKN290,0.00,0.00,VWS V14.01,2013-08-03 04:02:00,
2013-08-02 23:07:00,87.9,73.3,29.86,SSE,148,0.0,2.0,62,0.00,,BKN290,0.00,0.00,VWS V14.01,2013-08-03 04:07:00,
2013-08-02 23:10:00,90.2,71.3,29.85,SW,232,2.0,3.0,54,0.00,,CLR,0.00,0.00,VWS V15.00,2013-08-03 04:10:00,
2013-08-02 23:12:00,87.7,73.6,29.86,SSE,168,0.0,0.0,63,0.00,,BKN290,0.00,0.00,VWS V14.01,2013-08-03 04:12:00,
2013-08-02 23:17:00,87.5,73.8,29.86,SW,214,0.0,1.0,64,0.00,,BKN290,0.00,0.00,VWS V14.01,2013-08-03 04:17:00,
2013-08-02 23:20:00,90.2,72.4,29.85,East,91,1.0,3.0,56,0.00,,CLR,0.00,0.00,VWS V15.00,2013-08-03 04:20:00,
2013-08-02 23:22:00,87.3,73.6,29.86,ESE,109,2.0,2.0,64,0.00,,BKN290,0.00,0.00,VWS V14.01,2013-08-03 04:22:00,
2013-08-02 23:27:00,87.3,74.6,29.86,SE,145,0.0,2.0,66,0.00,,BKN290,0.00,0.00,VWS V14.01,2013-08-03 04:27:00,
2013-08-02 23:30:00,89.9,73.2,29.85,ESE,117,4.0,4.0,58,0.00,,CLR,0.00,0.00,VWS V15.00,2013-08-03 04:30:00,
2013-08-02 23:32:00,87.2,74.9,29.86,SSE,150,5.0,5.0,67,0.00,,BKN290,0.00,0.00,VWS V14.01,2013-08-03 04:32:00,
2013-08-02 23:37:00,87.1,74.4,29.86,SSE,160,1.0,5.0,66,0.00,,FEW290,0.00,0.00,VWS V14.01,2013-08-03 04:37:00,
2013-08-02 23:40:00,89.3,73.1,29.85,SE,133,0.0,4.0,59,0.00,,CLR,0.00,0.00,VWS V15.00,2013-08-03 04:40:00,
2013-08-02 23:42:00,87.0,74.3,29.86,SE,127,1.0,2.0,66,0.00,,FEW290,0.00,0.00,VWS V14.01,2013-08-03 04:42:00,
2013-08-02 23:47:00,87.0,74.3,29.86,SSE,155,0.0,3.0,66,0.00,,FEW290,0.00,0.00,VWS V14.01,2013-08-03 04:47:00,
2013-08-02 23:50:00,88.8,72.6,29.86,SSW,209,0.0,4.0,59,0.00,,CLR,0.00,0.00,VWS V15.00,2013-08-03 04:50:00,
2013-08-02 23:52:00,87.1,74.4,29.86,SSW,202,1.0,1.0,66,0.00,,FEW290,0.00,0.00,VWS V14.01,2013-08-03 04:52:00,
2013-08-02 23:57:00,87.1,74.4,29.86,ESE,112,1.0,4.0,66,0.00,,FEW290,0.00,0.00,VWS V14.01,2013-08-03 04:57:00,